Hooper Bay, AK

2:22 PM AKDT on June 27, 2017 (GMT -0800)
Hooper Bay

Weather History for PAHP - July, 2013

Change the Weather History Date:

Thursday, July 4, 2013

  Actual Average Record
Temperature  
Mean Temperature 42 °F -  
Max Temperature 46 °F 51 °F 64 °F (1997)
Min Temperature 39 °F 43 °F 37 °F (1999)
Degree Days  
Heating Degree Days 22    
Moisture  
Dew Point 40 °F    
Average Humidity 88    
Maximum Humidity 93    
Minimum Humidity 81    
Precipitation  
Precipitation 0.00 in - - ()
Sea Level Pressure  
Sea Level Pressure 29.79 in    
Wind  
Wind Speed 11 mph (SW)    
Max Wind Speed 18 mph    
Max Gust Speed 18 mph    
Visibility 10 miles    
Events      
Averages and records for this station are not official NWS values.
T = Trace of Precipitation, MM = Missing Value Source: NWS Daily Summary

Daily Weather History Graph

Daily Weather History Graph

Search for Another Location

Airport or City:

Trip Planner

Search our weather history database for the weather conditions in past years. The results will help you decide how hot, cold, wet, or windy it might be!

Date:

Astronomy

Jul. 04, 2013 Rise Set
Actual Time 5:33 AM AKDT 12:44 AM AKDT
Civil Twilight 3:41 AM AKDT 2:36 AM AKDT
Nautical Twilight Sun does not set Sun does not set
Astronomical Twilight Sun does not set Sun does not set
Moon 3:33 AM AKDT (7/4) 9:31 PM AKDT (7/4)
Length of Visible Light 22h 55m
Length of Day
19h 10m
Waning Crescent, 10% of the Moon is Illuminated
Jul 4
Waning Crescent
Jul 7
New
Jul 15
First Quarter
Jul 22
Full
Jul 29
Last Quarter

Hourly Weather History & Observations

Time (AKDT) Temp. Windchill Dew Point Humidity Pressure Visibility Wind Dir Wind Speed Gust Speed Precip Events Conditions
12:16 AM 42.8 °F 38.0 °F 37.4 °F 81% 29.70 in 10.0 mi WNW 8.1 mph - N/A   Overcast
12:36 AM 41.0 °F 35.2 °F 37.4 °F 87% 29.70 in 10.0 mi WNW 9.2 mph - N/A   Overcast
12:56 AM 41.0 °F 35.8 °F 37.4 °F 87% 29.71 in 10.0 mi WNW 8.1 mph - N/A   Overcast
1:16 AM 41.0 °F 35.2 °F 37.4 °F 87% 29.72 in 10.0 mi WNW 9.2 mph - N/A   Overcast
1:36 AM 41.0 °F 36.4 °F 37.4 °F 87% 29.72 in 10.0 mi West 6.9 mph - N/A   Overcast
1:56 AM 41.0 °F 37.1 °F 37.4 °F 87% 29.72 in 10.0 mi West 5.8 mph - N/A   Overcast
2:16 AM 42.8 °F 36.6 °F 37.4 °F 81% 29.72 in 10.0 mi West 11.5 mph - N/A   Overcast
2:36 AM 41.0 °F 35.2 °F 37.4 °F 87% 29.73 in 10.0 mi West 9.2 mph - N/A   Overcast
2:56 AM 41.0 °F 35.2 °F 37.4 °F 87% 29.73 in 10.0 mi WSW 9.2 mph - N/A   Overcast
3:16 AM 39.2 °F 33.6 °F 37.4 °F 93% 29.73 in 10.0 mi WSW 8.1 mph - N/A   Overcast
3:36 AM 41.0 °F 35.8 °F 37.4 °F 87% 29.74 in 10.0 mi West 8.1 mph - N/A   Overcast
3:56 AM 41.0 °F 34.3 °F 37.4 °F 87% 29.74 in 10.0 mi West 11.5 mph - N/A   Overcast
4:16 AM 41.0 °F 34.7 °F 37.4 °F 87% 29.74 in 10.0 mi WSW 10.4 mph - N/A   Overcast
4:36 AM 41.0 °F 35.8 °F 37.4 °F 87% 29.74 in 10.0 mi WSW 8.1 mph - N/A   Overcast
4:56 AM 41.0 °F 35.8 °F 37.4 °F 87% 29.74 in 10.0 mi WSW 8.1 mph - N/A   Overcast
5:16 AM 41.0 °F 35.2 °F 37.4 °F 87% 29.75 in 10.0 mi WSW 9.2 mph - N/A   Overcast
5:36 AM 41.0 °F 34.7 °F 37.4 °F 87% 29.75 in 10.0 mi WSW 10.4 mph - N/A   Overcast
5:56 AM 41.0 °F 34.3 °F 37.4 °F 87% 29.75 in 10.0 mi WSW 11.5 mph - N/A   Overcast
6:16 AM 41.0 °F 34.7 °F 37.4 °F 87% 29.75 in 10.0 mi SW 10.4 mph - N/A   Overcast
6:36 AM 41.0 °F 35.2 °F 37.4 °F 87% 29.75 in 10.0 mi WSW 9.2 mph - N/A   Overcast
6:56 AM 41.0 °F 34.7 °F 37.4 °F 87% 29.75 in 10.0 mi SW 10.4 mph - N/A   Overcast
7:16 AM 42.8 °F 37.5 °F 37.4 °F 81% 29.75 in 10.0 mi SW 9.2 mph - N/A   Overcast
7:36 AM 42.8 °F 37.5 °F 37.4 °F 81% 29.76 in 10.0 mi SW 9.2 mph - N/A   Overcast
7:56 AM 42.8 °F 37.0 °F 39.2 °F 87% 29.76 in 10.0 mi SW 10.4 mph - N/A   Overcast
8:16 AM 42.8 °F 37.0 °F 37.4 °F 81% 29.76 in 10.0 mi SSW 10.4 mph - N/A   Overcast
8:36 AM 42.8 °F 36.6 °F 39.2 °F 87% 29.76 in 10.0 mi SSW 11.5 mph - N/A   Overcast
8:56 AM 42.8 °F 36.6 °F 39.2 °F 87% 29.76 in 10.0 mi SSW 11.5 mph - N/A   Overcast
9:16 AM 42.8 °F 36.6 °F 39.2 °F 87% 29.76 in 10.0 mi SSW 11.5 mph - N/A   Overcast
9:36 AM 42.8 °F 36.2 °F 39.2 °F 87% 29.76 in 10.0 mi SSW 12.7 mph - N/A   Overcast
9:56 AM 42.8 °F 37.0 °F 39.2 °F 87% 29.76 in 8.0 mi SSW 10.4 mph - N/A   Overcast
10:16 AM 42.8 °F 37.5 °F 41.0 °F 93% 29.77 in 9.0 mi SW 9.2 mph - N/A   Overcast
10:36 AM 42.8 °F 37.0 °F 41.0 °F 93% 29.77 in 9.0 mi SW 10.4 mph - N/A   Overcast
10:56 AM 42.8 °F 37.0 °F 41.0 °F 93% 29.78 in 10.0 mi SW 10.4 mph - N/A   Overcast
11:16 AM 42.8 °F 37.0 °F 41.0 °F 93% 29.78 in 10.0 mi SW 10.4 mph - N/A   Overcast
11:36 AM 44.6 °F 38.8 °F 41.0 °F 87% 29.78 in 10.0 mi SW 11.5 mph - N/A   Overcast
11:56 AM 44.6 °F 39.2 °F 41.0 °F 87% 29.79 in 10.0 mi SW 10.4 mph - N/A   Overcast
12:16 PM 44.6 °F 38.8 °F 41.0 °F 87% 29.79 in 10.0 mi SW 11.5 mph - N/A   Overcast
12:36 PM 44.6 °F 38.8 °F 41.0 °F 87% 29.79 in 10.0 mi SSW 11.5 mph - N/A   Overcast
12:56 PM 44.6 °F 38.8 °F 41.0 °F 87% 29.80 in 10.0 mi SSW 11.5 mph - N/A   Overcast
1:16 PM 44.6 °F 38.4 °F 41.0 °F 87% 29.80 in 10.0 mi SSW 12.7 mph - N/A   Overcast
1:36 PM 44.6 °F 38.4 °F 41.0 °F 87% 29.81 in 5.0 mi SW 12.7 mph - N/A   Overcast
1:56 PM 44.6 °F 38.1 °F 42.8 °F 93% 29.81 in 10.0 mi SSW 13.8 mph - N/A   Overcast
2:16 PM 44.6 °F 38.1 °F 42.8 °F 93% 29.81 in 10.0 mi SW 13.8 mph - N/A   Overcast
2:36 PM 44.6 °F 38.4 °F 42.8 °F 93% 29.81 in 10.0 mi SW 12.7 mph - N/A   Overcast
2:56 PM 44.6 °F 39.2 °F 42.8 °F 93% 29.82 in 8.0 mi SW 10.4 mph - N/A   Overcast
3:16 PM 44.6 °F 38.1 °F 42.8 °F 93% 29.82 in 10.0 mi SW 13.8 mph - N/A   Overcast
3:36 PM 44.6 °F 38.4 °F 42.8 °F 93% 29.83 in 10.0 mi SW 12.7 mph - N/A   Overcast
3:56 PM 44.6 °F 38.4 °F 42.8 °F 93% 29.83 in 10.0 mi SSW 12.7 mph - N/A   Overcast
4:16 PM 46.4 °F 40.7 °F 42.8 °F 87% 29.83 in 10.0 mi SW 12.7 mph - N/A   Overcast
4:36 PM 46.4 °F 40.1 °F 42.8 °F 87% 29.82 in 10.0 mi SSW 15.0 mph - N/A   Overcast
4:56 PM 46.4 °F 39.8 °F 42.8 °F 87% 29.83 in 10.0 mi SSW 16.1 mph - N/A   Overcast
5:16 PM 46.4 °F 40.4 °F 42.8 °F 87% 29.83 in 10.0 mi SW 13.8 mph - N/A   Overcast
5:36 PM 46.4 °F 40.4 °F 42.8 °F 87% 29.83 in 10.0 mi SSW 13.8 mph - N/A   Overcast
5:56 PM 46.4 °F 40.4 °F 42.8 °F 87% 29.83 in 10.0 mi SSW 13.8 mph - N/A   Overcast
6:16 PM 46.4 °F 40.4 °F 42.8 °F 87% 29.83 in 10.0 mi SSW 13.8 mph - N/A   Mostly Cloudy
6:36 PM 46.4 °F 40.4 °F 42.8 °F 87% 29.82 in 10.0 mi SSW 13.8 mph - N/A   Overcast
6:56 PM 46.4 °F 40.4 °F 42.8 °F 87% 29.83 in 10.0 mi SSW 13.8 mph 18.4 mph N/A   Overcast
7:16 PM 46.4 °F 40.7 °F 42.8 °F 87% 29.83 in 10.0 mi SSW 12.7 mph - N/A   Overcast
7:36 PM 46.4 °F 40.4 °F 42.8 °F 87% 29.82 in 10.0 mi SSW 13.8 mph - N/A   Overcast
7:56 PM 46.4 °F 40.1 °F 42.8 °F 87% 29.83 in 10.0 mi SSW 15.0 mph - N/A   Overcast
8:16 PM 46.4 °F 40.1 °F 42.8 °F 87% 29.83 in 10.0 mi SSW 15.0 mph - N/A   Overcast
8:36 PM 46.4 °F 39.8 °F 42.8 °F 87% 29.83 in 10.0 mi SSW 16.1 mph - N/A   Overcast
8:56 PM 46.4 °F 39.8 °F 42.8 °F 87% 29.83 in 10.0 mi SSW 16.1 mph - N/A   Overcast
9:16 PM 44.6 °F 37.4 °F 42.8 °F 93% 29.83 in 10.0 mi SSW 16.1 mph - N/A   Overcast
9:36 PM 44.6 °F 37.2 °F 42.8 °F 93% 29.83 in 10.0 mi SSW 17.3 mph - N/A   Overcast
9:56 PM 44.6 °F 37.8 °F 42.8 °F 93% 29.83 in 10.0 mi SSW 15.0 mph - N/A   Overcast
10:16 PM 44.6 °F 37.4 °F 42.8 °F 93% 29.83 in 10.0 mi SSW 16.1 mph - N/A   Overcast
10:36 PM 44.6 °F 37.4 °F 42.8 °F 93% 29.83 in 10.0 mi SSW 16.1 mph - N/A   Overcast
10:56 PM 44.6 °F 37.4 °F 41.0 °F 87% 29.83 in 10.0 mi SSW 16.1 mph - N/A   Overcast
11:16 PM 44.6 °F 37.2 °F 41.0 °F 87% 29.84 in 10.0 mi SSW 17.3 mph - N/A   Overcast
11:36 PM 44.6 °F 36.9 °F 41.0 °F 87% 29.84 in 10.0 mi SW 18.4 mph - N/A   Overcast
11:56 PM 44.6 °F 37.2 °F 41.0 °F 87% 29.84 in 10.0 mi SSW 17.3 mph - N/A   Overcast